Vorticity
7 5 6 8 10 13 17 8 18 2 18 21 12 15 21 11 6 13 12 4 12 4 18 -17 26 4 14 14 25 2 48 4 11 1 -11 29 -3 44 27 13 2 14 24 9
7 5 5 8 9 11 9 11 18 -16 3 4 13 5 21 15 8 11 -5 9 1 10 11 15 7 9 2 11 23 7 -3 -2 23 5 -7 -10 7 50 29 13 10 -4 14 17
7 6 4 8 9 11 11 24 8 22 9 5 9 16 12 23 3 4 29 6 7 14 -3 -2 -3 6 4 13 14 32 15 9 27 30 10 10 -0 13 48 28 15 -1 52 13
7 7 4 7 10 10 12 12 9 4 -3 3 8 10 13 10 23 16 11 -10 7 5 13 20 3 2 9 6 11 12 12 10 11 9 -3 -32 -5 14 13 16 51 26 18 8
7 7 5 5 10 10 11 16 14 5 4 2 1 6 10 11 15 12 8 12 12 6 8 15 5 2 4 -2 2 8 13 22 9 -8 25 7 -40 2 23 16 7 -3 5 3
8 7 6 4 7 10 12 11 12 12 6 5 6 5 3 10 13 10 12 15 11 13 10 15 8 10 1 9 -3 6 7 14 20 -9 14 19 -33 17 6 16 18 11 3 6
9 7 7 4 5 10 14 12 12 16 4 8 4 7 7 8 8 10 12 14 14 14 13 16 6 20 2 1 13 9 10 19 19 -3 31 8 1 6 10 2 16 15 10 10
10 7 7 5 4 6 14 12 14 8 12 11 6 4 5 8 5 14 4 14 11 9 19 8 12 -5 12 3 2 11 3 15 -13 13 6 -2 -8 -1 3 5 11 11 7 1
11 7 7 5 4 4 13 12 13 9 20 -5 16 7 5 7 7 5 16 8 7 19 8 21 -0 8 7 -5 13 11 12 17 34 6 18 8 -4 23 11 7 -4 18 6 3
13 8 7 6 4 5 9 13 15 11 21 7 7 9 6 7 7 13 2 6 21 7 13 24 12 4 13 6 7 -16 11 -4 3 13 11 3 16 21 10 18 2 17 13 10
16 10 7 7 5 4 7 15 14 9 15 8 4 11 5 10 4 9 5 29 0 1 19 15 16 5 2 7 11 3 14 18 9 9 14 7 10 26 18 15 11 10 11 12
16 13 8 7 7 5 5 15 16 7 11 19 9 11 6 12 4 9 8 12 13 8 13 12 8 4 8 14 18 8 17 4 10 7 2 3 3 3 7 7 10 12 8 12
17 16 9 7 7 5 3 14 13 10 5 14 16 15 2 10 6 3 5 9 9 15 10 7 7 13 5 13 7 10 5 22 12 14 22 4 2 3 2 5 4 9 10 9
15 18 12 7 7 6 5 8 17 8 18 -9 10 16 2 10 16 -5 11 8 8 14 15 13 4 13 9 4 -0 18 17 10 9 18 25 20 14 5 4 2 3 3 5 11
13 20 16 8 7 7 7 8 14 6 14 8 15 17 -7 13 15 -3 4 7 8 12 16 15 17 9 10 2 25 10 11 11 12 5 14 19 22 14 9 7 4 3 4 5
10 20 20 10 6 6 7 10 5 15 10 10 22 16 -7 14 3 11 11 7 14 15 19 19 26 19 3 14 1 15 10 9 9 9 10 10 14 22 26 21 14 8 5 5
8 15 21 16 7 6 12 2 0 16 11 9 15 26 -6 13 -9 2 5 12 13 22 26 9 17 16 9 5 14 10 14 12 11 9 7 8 9 10 11 14 20 26 25 15
7 13 17 19 14 9 14 -3 5 13 19 20 17 -1 10 11 -10 2 1 14 27 17 14 5 16 16 19 20 3 14 14 12 12 11 13 12 10 8 6 7 8 10 11 16
9 12 15 18 16 17 -2 6 9 23 19 9 3 4 24 -14 -4 -1 12 25 19 15 7 19 20 18 17 8 -0 9 9 7 9 11 11 11 11 15 17 14 11 8 7 7
8 14 17 18 7 11 8 12 42 44 12 -2 12 2 11 9 4 -0 29 25 10 16 9 18 13 14 22 11 -1 7 13 11 11 11 11 11 12 13 12 10 9 9 9 10
10 8 19 12 14 10 18 52 14 11 6 22 -6 2 8 0 7 12 43 11 19 16 8 14 12 8 23 8 -4 10 16 13 10 8 11 10 10 9 8 9 10 13 16 15
10 12 16 17 50 42 23 15 17 3 15 -3 -4 3 5 3 23 36 22 21 17 9 6 21 12 5 18 12 -4 1 6 5 2 0 0 4 7 9 9 7 6 6 6 7
13 16 54 27 11 7 7 16 11 -3 -8 -11 -3 9 9 24 19 18 22 13 10 6 20 11 5 6 8 21 -1 2 4 3 -0 -3 4 4 11 11 11 8 7 7 8 9
21 39 14 17 12 8 -4 6 -2 -7 -4 -7 18 9 8 6 44 14 10 10 9 12 10 -0 7 12 11 16 13 1 2 -4 -10 -3 8 12 10 11 12 12 10 7 12 11
15 40 14 14 -3 1 6 -11 40 9 15 15 15 23 31 24 12 15 9 16 15 6 -5 4 4 6 7 6 5 -6 -12 1 9 14 19 21 17 16 15 14 11 15 18 16
10 -5 -23 -34 4 10 21 8 24 -0 10 16 19 24 19 18 12 17 2 9 -17 -3 2 5 5 -10 -10 -1 14 22 21 24 11 17 12 10 13 15 14 14 17 14 11 14
-12 -23 0 -2 9 9 16 8 18 11 6 19 31 21 7 11 21 6 5 -9 3 4 15 1 -8 1 14 24 14 10 9 9 16 15 15 16 16 17 16 16 9 7 9 13
Height
3116 3109 3100 3092 3086 3077 3069 3062 3054 3050 3044 3030 3022 3022 3020 3019 3016 3012 3009 3006 3000 2997 2992 2988 2983 2979 2973 2966 2959 2951 2947 2945 2940 2940 2940 2938 2936 2930 2926 2927 2932 2934 2938 2951
3116 3109 3102 3093 3085 3076 3068 3062 3055 3051 3045 3031 3032 3031 3027 3022 3017 3013 3010 3007 3004 3000 2995 2992 2987 2983 2979 2972 2963 2959 2955 2950 2944 2942 2941 2938 2931 2930 2926 2927 2929 2937 2940 2952
3116 3110 3103 3095 3086 3079 3071 3063 3058 3053 3046 3043 3038 3031 3028 3025 3020 3016 3012 3009 3006 3001 2998 2995 2990 2986 2982 2976 2970 2966 2963 2960 2959 2961 2962 2956 2946 2940 2932 2927 2933 2943 2945 2948
3116 3110 3103 3095 3088 3080 3074 3066 3061 3056 3050 3046 3042 3038 3032 3026 3022 3019 3015 3012 3007 3003 2999 2996 2992 2988 2983 2981 2975 2970 2967 2967 2966 2963 2961 2959 2957 2949 2939 2933 2940 2945 2955 2953
3115 3109 3103 3095 3089 3082 3077 3068 3065 3058 3055 3051 3047 3041 3035 3029 3025 3021 3017 3013 3009 3005 3001 2999 2994 2991 2988 2983 2978 2974 2972 2971 2970 2968 2966 2964 2961 2959 2954 2950 2952 2956 2960 2959
3115 3109 3103 3096 3090 3082 3075 3070 3065 3061 3058 3052 3048 3043 3038 3033 3027 3024 3019 3015 3011 3007 3003 3000 2997 2995 2992 2988 2983 2978 2976 2973 2970 2969 2967 2965 2966 2966 2964 2965 2964 2963 2961 2964
3113 3107 3102 3096 3089 3083 3078 3071 3067 3062 3059 3055 3051 3046 3041 3036 3030 3026 3022 3017 3013 3009 3003 3001 2999 2996 2994 2991 2989 2985 2980 2976 2973 2971 2968 2976 2979 2976 2973 2971 2970 2968 2967 2967
3112 3106 3101 3096 3090 3084 3078 3072 3067 3063 3059 3056 3052 3049 3045 3040 3034 3029 3023 3018 3014 3009 3005 3002 2999 2997 2996 2993 2991 2987 2984 2980 2978 2977 2976 2981 2979 2977 2977 2975 2975 2971 2970 2970
3110 3105 3101 3095 3090 3084 3079 3073 3067 3064 3060 3057 3053 3048 3044 3040 3035 3032 3026 3021 3016 3012 3007 3004 3002 3000 2999 2995 2993 2990 2987 2984 2982 2980 2981 2986 2983 2979 2978 2978 2978 2976 2975 2975
3109 3104 3099 3095 3090 3085 3079 3074 3068 3064 3060 3056 3053 3049 3045 3041 3037 3031 3026 3022 3019 3015 3010 3006 3004 3003 3001 2998 2996 2991 2988 2986 2985 2985 2985 2985 2983 2980 2979 2980 2986 2977 2977 2976
3107 3103 3098 3094 3088 3084 3079 3073 3068 3063 3059 3056 3052 3048 3045 3041 3037 3032 3028 3024 3019 3016 3012 3009 3007 3005 3003 2999 2997 2995 2993 2991 2989 2987 2987 2988 2985 2983 2983 2983 2981 2980 2979 2978
3104 3100 3096 3093 3088 3083 3078 3072 3068 3062 3059 3056 3053 3048 3045 3041 3037 3033 3029 3026 3021 3018 3015 3012 3008 3005 3003 3000 2997 2996 2994 2994 2992 2991 2989 2987 2987 2986 2985 2983 2982 2982 2982 2981
3102 3097 3093 3090 3086 3081 3077 3072 3067 3062 3058 3055 3051 3047 3044 3040 3036 3033 3029 3025 3021 3017 3014 3011 3008 3006 3002 3000 2997 2995 2993 2991 2989 2989 2987 2986 2985 2985 2985 2984 2983 2983 2983 2983
3099 3095 3090 3087 3083 3079 3074 3070 3065 3061 3056 3053 3051 3046 3043 3039 3035 3032 3028 3023 3019 3015 3011 3008 3006 3004 3002 2998 2997 2993 2992 2989 2988 2986 2984 2983 2983 2983 2983 2983 2983 2983 2983 2983
3096 3092 3087 3083 3079 3076 3072 3067 3063 3058 3057 3052 3047 3045 3042 3037 3034 3030 3025 3020 3016 3011 3007 3004 3003 3001 2999 2996 2993 2991 2989 2987 2986 2984 2982 2981 2980 2980 2979 2979 2980 2981 2982 2982
3093 3088 3083 3079 3076 3072 3068 3064 3060 3055 3051 3047 3044 3042 3039 3036 3033 3028 3023 3018 3012 3008 3003 3000 2997 2998 2998 2994 2990 2989 2987 2986 2984 2983 2981 2979 2978 2977 2976 2977 2977 2977 2978 2979
3089 3084 3079 3075 3071 3068 3065 3062 3057 3052 3047 3044 3041 3039 3036 3034 3030 3025 3020 3014 3008 3003 2999 2996 2995 2994 2995 2991 2988 2987 2985 2984 2982 2981 2980 2978 2976 2975 2975 2974 2974 2973 2973 2974
3084 3078 3074 3069 3066 3062 3059 3055 3052 3047 3044 3041 3039 3037 3034 3031 3026 3021 3014 3009 3003 2998 2996 2993 2992 2990 2989 2986 2986 2984 2983 2982 2981 2979 2977 2976 2975 2973 2972 2971 2971 2971 2970 2970
3078 3073 3068 3064 3061 3057 3053 3049 3045 3041 3043 3038 3036 3034 3031 3026 3023 3017 3010 3004 2999 2995 2993 2991 2990 2987 2985 2984 2984 2983 2981 2980 2979 2977 2975 2974 2972 2971 2969 2969 2968 2967 2966 2966
3072 3068 3063 3057 3055 3050 3047 3040 3037 3033 3034 3032 3032 3031 3028 3026 3019 3013 3009 3001 2997 2993 2992 2990 2987 2984 2983 2983 2983 2981 2979 2977 2976 2975 2973 2972 2970 2968 2967 2965 2964 2963 2962 2961
3066 3061 3058 3053 3047 3043 3038 3035 3033 3031 3029 3028 3027 3026 3023 3019 3016 3011 3008 3002 2996 2993 2991 2989 2984 2982 2981 2980 2979 2978 2977 2975 2973 2971 2970 2969 2967 2965 2963 2961 2960 2958 2957 2955
3061 3056 3049 3045 3040 3035 3035 3031 3030 3028 3027 3025 3023 3021 3018 3014 3010 3006 3002 2998 2995 2989 2987 2985 2980 2979 2978 2977 2976 2975 2973 2972 2971 2969 2967 2966 2963 2961 2959 2956 2954 2952 2951 2949
3053 3049 3044 3041 3038 3035 3030 3028 3026 3025 3023 3020 3017 3015 3013 3008 3006 3002 3000 2995 2991 2987 2983 2979 2976 2975 2975 2974 2973 2971 2969 2967 2966 2964 2962 2960 2957 2954 2952 2950 2947 2946 2943 2941
3047 3044 3040 3038 3031 3028 3026 3025 3023 3020 3016 3014 3011 3009 3008 3004 3002 2998 2995 2992 2988 2983 2978 2974 2972 2971 2970 2969 2969 2967 2964 2962 2959 2956 2954 2951 2948 2945 2943 2940 2939 2937 2935 2932
3040 3038 3033 3026 3025 3023 3021 3019 3016 3014 3011 3007 3003 3002 3001 2998 2996 2993 2991 2988 2981 2975 2972 2970 2969 2967 2966 2964 2963 2960 2957 2953 2950 2946 2943 2940 2937 2935 2933 2931 2929 2928 2926 2923
3032 3026 3022 3020 3018 3017 3014 3012 3009 3007 3004 3000 2998 2995 2993 2991 2990 2986 2983 2979 2972 2970 2968 2966 2963 2961 2959 2956 2953 2949 2946 2943 2939 2936 2933 2931 2929 2926 2925 2923 2921 2919 2917 2915
3017 3013 3013 3012 3010 3010 3007 3005 3003 3000 2997 2994 2991 2989 2987 2985 2981 2976 2973 2970 2968 2965 2962 2959 2955 2952 2948 2944 2940 2937 2935 2932 2929 2926 2924 2921 2920 2918 2916 2915 2914 2912 2910 2907